FW7254 Weather Reports


Display with metric or nautical units.
time (UTC)temp
F
wind
direction
speed
MPH
gust
MPH
rain 1hr
in
rain 24hr
in
rain mn
in
humidity
%
barometer
mb
20260901060330 83 58 0.0 0.0 0.00 0.00 0.00 74 1014.6
20260901054841 83 57 0.0 0.0 0.00 0.00 0.00 73 1014.7
20260901053318 83 57 0.0 0.0 0.00 0.00 0.00 74 1014.6
20260901051826 83 57 0.0 0.0 0.00 0.00 0.00 74 1014.7
20260901050351 83 58 0.0 0.0 0.00 0.00 0.00 74 1014.8
20260901044837 82 58 0.0 0.0 0.00 0.00 0.00 75 1014.8
20260901043321 82 57 0.0 0.0 0.00 0.00 0.00 76 1014.8
20260901041821 81 57 0.0 0.0 0.00 0.00 0.00 76 1014.9
20260901040326 82 57 0.0 0.0 0.00 0.00 0.00 75 1015.1
20260901034827 82 58 0.0 0.0 0.00 0.00 0.00 76 1015.2
20260901033334 82 57 0.0 0.0 0.00 0.00 0.00 74 1015.3
20260901031842 82 57 0.0 0.0 0.00 0.00 0.00 75 1015.5
20260901030318 82 57 0.0 0.0 0.00 0.00 0.00 74 1015.2
20260901024846 82 57 0.0 0.0 0.00 0.00 0.00 74 1015.2
20260901023328 82 58 0.0 0.0 0.00 0.00 0.00 75 1015.5
20260901021815 82 57 0.0 0.0 0.00 0.00 0.00 75 1015.3
20260901020320 82 58 0.0 0.0 0.00 0.00 0.00 76 1015.6
20260901014820 81 57 0.0 0.0 0.00 0.00 0.00 75 1015.9
20260901013327 82 57 0.0 0.0 0.00 0.00 0.00 75 1016.1
20260901011835 81 57 0.0 0.0 0.00 0.00 0.00 75 1016.1
20260901010314 81 57 0.0 0.0 0.00 0.00 0.00 76 1016.2
20260901004821 79 57 0.0 0.0 0.00 0.00 0.00 78 1016.3
20260901003325 79 58 0.0 0.0 0.00 0.00 0.00 79 1016.2
20260901001831 79 58 0.0 0.0 0.00 0.00 0.00 78 1016.3
20260901000336 80 58 0.0 0.0 0.00 0.00 0.00 77 1016.3
20260831234826 79 58 0.0 0.0 0.00 0.00 0.00 80 1016.3
20260831233352 78 57 0.0 0.0 0.00 0.00 0.00 81 1016.2
20260831231838 77 58 0.0 0.0 0.00 0.00 0.00 82 1016.3
20260831230336 77 58 0.0 0.0 0.00 0.00 0.00 82 1016.3
20260831224823 76 57 1.0 0.0 0.00 0.00 0.00 84 1016.3
20260831223328 75 58 0.0 0.0 0.00 0.00 0.00 84 1016.3
20260831221815 75 58 0.0 0.0 0.00 0.00 0.00 85 1016.3
20260831220340 75 58 0.0 0.0 0.00 0.00 0.00 85 1016.3
20260831214847 75 57 0.0 0.0 0.00 0.00 0.00 86 1016.3
20260831213332 74 58 0.0 0.0 0.00 0.00 0.00 86 1016.2
20260831211813 74 58 0.0 0.0 0.00 0.00 0.00 86 1016.2
20260831210318 74 58 0.0 0.0 0.00 0.00 0.00 86 1016.2
20260831204819 74 57 0.0 0.0 0.00 0.00 0.00 86 1016.0
20260831203326 74 57 0.0 0.0 0.00 0.00 0.00 86 1016.0
20260831201831 74 58 0.0 0.0 0.00 0.00 0.00 85 1015.9
20260831200316 75 57 0.0 0.0 0.00 0.00 0.00 85 1016.0
20260831194823 75 57 0.0 0.0 0.00 0.00 0.00 85 1016.0
20260831193333 75 57 0.0 0.0 0.00 0.00 0.00 85 1016.1
20260831191840 75 57 0.0 0.0 0.00 0.00 0.00 84 1016.1
20260831190338 75 57 0.0 0.0 0.00 0.00 0.00 84 1015.9
20260831184830 75 58 0.0 0.0 0.00 0.00 0.00 84 1016.0
20260831183329 75 58 0.0 0.0 0.00 0.00 0.00 84 1015.9
20260831181818 75 57 0.0 0.0 0.00 0.00 0.00 84 1016.1
20260831180317 75 58 0.0 0.0 0.00 0.00 0.00 84 1016.0
20260831174825 75 57 0.0 0.0 0.00 0.00 0.00 84 1016.1
20260831173311 75 58 0.0 0.0 0.00 0.00 0.00 84 1016.2
20260831171838 75 58 0.0 0.0 0.00 0.00 0.00 83 1016.2
20260831170315 75 58 0.0 0.0 0.00 0.00 0.00 83 1016.2
20260831164824 75 58 0.0 0.0 0.00 0.00 0.00 83 1016.1
20260831163329 75 57 0.0 0.0 0.00 0.00 0.00 83 1016.1
20260831161817 75 58 0.0 0.0 0.00 0.00 0.00 83 1016.0
20260831160322 75 59 0.0 0.0 0.00 0.00 0.00 82 1015.9
20260831154825 75 58 0.0 0.0 0.00 0.00 0.00 82 1016.0
20260831153310 76 57 0.0 0.0 0.00 0.00 0.00 82 1016.2
20260831151819 76 58 0.0 0.0 0.00 0.00 0.00 82 1016.1
20260831150325 76 57 0.0 0.0 0.00 0.00 0.00 82 1016.2
20260831144833 76 58 0.0 0.0 0.00 0.00 0.00 82 1016.2
20260831143337 76 58 0.0 0.0 0.00 0.00 0.00 82 1016.2
20260831141818 76 57 0.0 0.0 0.00 0.00 0.00 82 1016.1
20260831140324 76 58 0.0 0.0 0.00 0.00 0.00 82 1016.2
20260831134823 76 57 0.0 0.0 0.00 0.00 0.00 82 1016.0
20260831133336 76 57 0.0 0.0 0.00 0.00 0.00 82 1016.0
20260831131832 76 57 0.0 0.0 0.00 0.00 0.00 82 1015.8
20260831130334 76 58 0.0 0.0 0.00 0.00 0.00 82 1015.8
20260831124813 76 58 0.0 0.0 0.00 0.00 0.00 82 1015.8
20260831123316 77 57 0.0 0.0 0.00 0.00 0.00 81 1015.6
20260831121821 77 58 0.0 0.0 0.00 0.00 0.00 81 1015.6
20260831120325 77 58 0.0 0.0 0.00 0.00 0.00 80 1015.6
20260831114831 77 57 0.0 0.0 0.00 0.00 0.00 79 1015.6
20260831113312 77 58 0.0 0.0 0.00 0.00 0.00 78 1015.6
20260831111818 78 58 0.0 0.0 0.00 0.00 0.00 78 1015.6
20260831110321 78 58 0.0 0.0 0.00 0.00 0.00 79 1015.5
20260831104829 78 58 0.0 0.0 0.00 0.00 0.00 78 1015.2
20260831103334 78 58 0.0 0.0 0.00 0.00 0.00 78 1015.0
20260831101815 78 58 0.0 0.0 0.00 0.00 0.00 77 1014.9
20260831100320 79 58 0.0 0.0 0.00 0.00 0.00 76 1014.5
20260831094828 79 58 0.0 0.0 0.00 0.00 0.00 75 1014.2
20260831093328 79 58 0.0 0.0 0.00 0.00 0.00 75 1014.2
20260831091837 79 58 0.0 0.0 0.00 0.00 0.00 77 1014.1
20260831090323 79 58 0.0 0.0 0.00 0.00 0.00 77 1013.9
20260831084830 80 58 0.0 0.0 0.00 0.00 0.00 77 1013.7
20260831083335 80 57 0.0 0.0 0.00 0.00 0.00 76 1013.6
20260831081821 80 58 0.0 0.0 0.00 0.00 0.00 75 1013.6
20260831080347 80 58 0.0 0.0 0.00 0.00 0.00 75 1013.3
20260831074813 80 58 0.0 0.0 0.00 0.00 0.00 76 1013.2
20260831073311 80 58 0.0 0.0 0.00 0.00 0.00 76 1013.1
20260831071818 80 58 0.0 0.0 0.00 0.00 0.00 76 1012.9
20260831070319 81 58 0.0 0.0 0.00 0.00 0.00 75 1012.8
20260831064826 81 58 0.0 0.0 0.00 0.00 0.00 75 1012.8
20260831063332 81 58 0.0 0.0 0.00 0.00 0.00 75 1012.8
20260831061814 81 58 0.0 0.0 0.00 0.00 0.00 75 1012.7